Weather History for Salt Lake City, UT

Change the Weather History Date:

Saturday, October 6, 2012

  Actual Average Record
Temperature  
Mean Temperature 50 °F 57 °F  
Max Temperature 62 °F 69 °F 86 °F (1975)
Min Temperature 37 °F 45 °F 26 °F (1955)
Degree Days  
Heating Degree Days 15 9  
Month to date heating degree days 37 46  
Since 1 July heating degree days 44 135  
Cooling Degree Days 0 0  
Month to date cooling degree days 5 5  
Year to date cooling degree days 1613 1158  
Moisture  
Dew Point 23 °F    
Average Humidity 40    
Maximum Humidity 64    
Minimum Humidity 16    
Precipitation  
Precipitation 0.00 in 0.04 in 0.64 in (1977)
Month to date precipitation 0.00 0.28  
Year to date precipitation 8.09 12.00  
Snow  
Snow 0.00 in 0.10 in T in (2011)
Month to date snowfall 0.0 0.1  
Since 1 July snowfall 0.0 0.1  
Snow Depth 0.00 in    
Sea Level Pressure  
Sea Level Pressure 30.12 in    
Wind  
Wind Speed 5 mph (WSW)    
Max Wind Speed 10 mph    
Max Gust Speed 15 mph    
Visibility 10 miles    
Events      
T = Trace of Precipitation, MM = Missing Value Source: NWS Daily Summary

Daily Weather History Graph

Daily Weather History Graph

Search for Another Location

Airport:

Trip Planner

Search our weather history database for the weather conditions in past years. The results will help you decide how hot, cold, wet, or windy it might be!

Date:

Astronomy

Oct. 06, 2012 Rise Set
Actual Time 7:30 AM MDT 7:00 PM MDT
Civil Twilight 7:02 AM MDT 7:28 PM MDT
Nautical Twilight 6:31 AM MDT 7:59 PM MDT
Astronomical Twilight 5:59 AM MDT 8:31 PM MDT
Moon 11:18 PM MDT (10/6) 1:29 PM MDT (10/6)
Length of Visible Light 12h 25m
Length of Day
11h 30m
Waning Gibbous, 65% of the Moon is Illuminated
Oct 6
Waning Gibbous
Oct 8
Last Quarter
Oct 15
New
Oct 21
First Quarter
Oct 29
Full

Hourly Weather History & Observations

Time (MDT) Temp. Windchill Dew Point Humidity Pressure Visibility Wind Dir Wind Speed Gust Speed Precip Events Conditions
12:53 AM 46.9 °F - 21.9 °F 37% 30.09 in 10.0 mi Calm Calm - N/A   Scattered Clouds
1:53 AM 43.0 °F 41.3 °F 25.0 °F 49% 30.10 in 10.0 mi SW 3.5 mph - N/A   Partly Cloudy
2:53 AM 41.0 °F 39.0 °F 27.0 °F 57% 30.13 in 10.0 mi SSW 3.5 mph - N/A   Clear
3:53 AM 42.1 °F 40.2 °F 28.9 °F 60% 30.12 in 10.0 mi SW 3.5 mph - N/A   Clear
4:53 AM 42.1 °F - 28.0 °F 58% 30.13 in 10.0 mi Calm Calm - N/A   Clear
5:53 AM 39.0 °F 36.8 °F 28.0 °F 65% 30.14 in 10.0 mi ESE 3.5 mph - N/A   Clear
6:53 AM 41.0 °F 39.0 °F 28.9 °F 62% 30.16 in 10.0 mi South 3.5 mph - N/A   Clear
7:53 AM 39.0 °F 35.7 °F 28.0 °F 65% 30.17 in 10.0 mi South 4.6 mph - N/A   Partly Cloudy
8:53 AM 44.1 °F - 28.0 °F 53% 30.19 in 10.0 mi Calm Calm - N/A   Clear
9:53 AM 50.0 °F - 27.0 °F 41% 30.19 in 10.0 mi Calm Calm - N/A   Clear
10:53 AM 53.1 °F - 27.0 °F 37% 30.17 in 10.0 mi Calm Calm - N/A   Clear
11:53 AM 55.0 °F - 24.1 °F 30% 30.15 in 10.0 mi WNW 5.8 mph - N/A   Clear
12:53 PM 57.0 °F - 23.0 °F 27% 30.13 in 10.0 mi NW 9.2 mph - N/A   Clear
1:53 PM 60.1 °F - 19.0 °F 20% 30.12 in 10.0 mi WNW 4.6 mph - N/A   Clear
2:53 PM 61.0 °F - 16.0 °F 17% 30.09 in 10.0 mi North - - N/A   Clear
3:53 PM 62.1 °F - 14.0 °F 15% 30.07 in 10.0 mi NNW 9.2 mph - N/A   Clear
4:53 PM 61.0 °F - 16.0 °F 17% 30.06 in 10.0 mi NW 10.4 mph - N/A   Clear
5:53 PM 60.1 °F - 16.0 °F 18% 30.06 in 10.0 mi NW 12.7 mph - N/A   Clear
6:53 PM 55.9 °F - 17.1 °F 22% 30.07 in 10.0 mi NW 9.2 mph - N/A   Partly Cloudy
7:53 PM 54.0 °F - 23.0 °F 30% 30.09 in 10.0 mi NW 6.9 mph - N/A   Clear
8:53 PM 51.1 °F - 27.0 °F 39% 30.09 in 10.0 mi North 4.6 mph - N/A   Clear
9:53 PM 48.9 °F - 25.0 °F 39% 30.09 in 10.0 mi SSE 4.6 mph - N/A   Clear
10:53 PM 46.0 °F 44.8 °F 21.0 °F 37% 30.09 in 10.0 mi South 3.5 mph - N/A   Clear
11:53 PM 45.0 °F 43.5 °F 17.1 °F 33% 30.09 in 10.0 mi SSE 3.5 mph - N/A   Clear